• In Russia
  • List of Countries
  • For 7 days
  • Water Temperature
  • Satellite Maps
  • Weather Map
  • Weather Widgets
  • user-avatar
    Login

    Hourly Weather Korçe

    Today, 29 April, Saturday

    Time Temperature Precipitation Wind Pressure Humidity
    00:00 +9°C° 0 mm 2 mps 666 mmHg 54%
    01:00 +9°C° 0 mm 2 mps 665 mmHg 51%
    02:00 +9°C° 0 mm 2 mps 665 mmHg 49%
    03:00 +9°C° 0 mm 2 mps 665 mmHg 48%
    04:00 +9°C° 0 mm 2 mps 664 mmHg 46%
    05:00 +12°C° 0 mm 2 mps 665 mmHg 44%
    06:00 +13°C° 0 mm 2 mps 665 mmHg 43%
    07:00 +14°C° 0 mm 2 mps 665 mmHg 42%
    08:00 +16°C° 0 mm 2 mps 665 mmHg 37%
    09:00 +17°C° 0 mm 2 mps 666 mmHg 31%
    10:00 +19°C° 0 mm 2 mps 666 mmHg 26%
    11:00 +18°C° 0.1 mm 2 mps 666 mmHg 31%
    12:00 +18°C° 0.1 mm 2 mps 665 mmHg 36%
    13:00 +17°C° 0.1 mm 3 mps 665 mmHg 40%
    14:00 +17°C° 0.1 mm 2 mps 665 mmHg 42%
    15:00 +17°C° 0.1 mm 2 mps 664 mmHg 44%
    16:00 +17°C° 0.1 mm 2 mps 664 mmHg 46%
    17:00 +15°C° 0 mm 2 mps 663 mmHg 53%
    18:00 +12°C° 0 mm 1 mps 662 mmHg 61%
    19:00 +10°C° 0 mm 1 mps 662 mmHg 68%
    20:00 +10°C° 0 mm 1 mps 662 mmHg 68%
    21:00 +10°C° 0 mm 1 mps 662 mmHg 69%
    22:00 +9°C° 0 mm 1 mps 662 mmHg 70%
    23:00 +9°C° 0 mm 1 mps 662 mmHg 71%

    Tomorrow, 30 April, Sunday

    Time Temperature Precipitation Wind Pressure Humidity
    00:00 +9°C° 0 mm 1 mps 662 mmHg 73%
    01:00 +8°C° 0 mm 1 mps 661 mmHg 74%
    02:00 +8°C° 0 mm 1 mps 661 mmHg 77%
    03:00 +8°C° 0 mm 1 mps 661 mmHg 79%
    04:00 +7°C° 0 mm 1 mps 661 mmHg 81%
    05:00 +9°C° 0 mm 1 mps 662 mmHg 76%
    06:00 +11°C° 0 mm 1 mps 663 mmHg 71%
    07:00 +13°C° 0 mm 2 mps 663 mmHg 66%
    08:00 +15°C° 0 mm 2 mps 664 mmHg 60%
    09:00 +16°C° 0 mm 2 mps 665 mmHg 54%
    10:00 +18°C° 0 mm 2 mps 665 mmHg 47%
    11:00 +18°C° 0.6 mm 2 mps 665 mmHg 50%
    12:00 +18°C° 0.6 mm 3 mps 665 mmHg 53%
    13:00 +18°C° 0.6 mm 3 mps 664 mmHg 55%
    14:00 +17°C° 1.2 mm 2 mps 664 mmHg 60%
    15:00 +16°C° 1.2 mm 2 mps 664 mmHg 65%
    16:00 +16°C° 1.2 mm 2 mps 664 mmHg 70%
    17:00 +14°C° 0.8 mm 2 mps 663 mmHg 77%
    18:00 +12°C° 0.8 mm 2 mps 663 mmHg 83%
    19:00 +10°C° 0.8 mm 2 mps 663 mmHg 89%
    20:00 +10°C° 0.3 mm 1 mps 663 mmHg 90%
    21:00 +10°C° 0.3 mm 1 mps 663 mmHg 91%
    22:00 +9°C° 0.3 mm 1 mps 663 mmHg 92%
    23:00 +9°C° 0 mm 1 mps 663 mmHg 93%

    Day after tomorrow, 1 May, Monday

    Time Temperature Precipitation Wind Pressure Humidity
    00:00 +9°C° 0 mm 1 mps 663 mmHg 93%
    01:00 +8°C° 0 mm 1 mps 663 mmHg 94%
    02:00 +8°C° 0 mm 1 mps 663 mmHg 94%
    03:00 +8°C° 0 mm 1 mps 663 mmHg 94%
    04:00 +8°C° 0 mm 1 mps 663 mmHg 94%
    05:00 +9°C° 0 mm 1 mps 663 mmHg 89%
    06:00 +11°C° 0 mm 1 mps 664 mmHg 84%
    07:00 +12°C° 0 mm 1 mps 665 mmHg 79%
    08:00 +14°C° 0.2 mm 1 mps 665 mmHg 70%
    09:00 +16°C° 0.2 mm 1 mps 666 mmHg 61%
    10:00 +18°C° 0.2 mm 1 mps 666 mmHg 52%
    11:00 +18°C° 0.9 mm 2 mps 666 mmHg 54%
    12:00 +18°C° 0.9 mm 2 mps 666 mmHg 56%
    13:00 +18°C° 0.9 mm 2 mps 666 mmHg 57%
    14:00 +17°C° 0.9 mm 2 mps 666 mmHg 61%
    15:00 +17°C° 0.9 mm 2 mps 666 mmHg 64%
    16:00 +16°C° 0.9 mm 2 mps 665 mmHg 68%
    17:00 +14°C° 0.4 mm 2 mps 665 mmHg 76%
    18:00 +12°C° 0.4 mm 1 mps 665 mmHg 84%
    19:00 +10°C° 0.4 mm 1 mps 664 mmHg 92%
    20:00 +9°C° 0.1 mm 1 mps 664 mmHg 93%
    21:00 +9°C° 0.1 mm 1 mps 664 mmHg 94%
    22:00 +7°C° 0.1 mm 0 mps 664 mmHg 95%
    23:00 +7°C° 0 mm 0 mps 664 mmHg 94%

    2 May, Tuesday

    Time Temperature Precipitation Wind Pressure Humidity
    00:00 +6°C° 0 mm 0 mps 664 mmHg 94%
    01:00 +6°C° 0 mm 0 mps 664 mmHg 94%
    02:00 +6°C° 0 mm 0 mps 663 mmHg 95%
    03:00 +5°C° 0 mm 0 mps 663 mmHg 95%
    04:00 +5°C° 0 mm 0 mps 663 mmHg 95%
    05:00 +8°C° 0 mm 0 mps 664 mmHg 89%
    06:00 +10°C° 0 mm 0 mps 665 mmHg 82%
    07:00 +13°C° 0 mm 0 mps 666 mmHg 76%
    08:00 +15°C° 0 mm 0 mps 666 mmHg 68%
    09:00 +18°C° 0 mm 1 mps 667 mmHg 59%
    10:00 +20°C° 0 mm 1 mps 667 mmHg 51%
    11:00 +20°C° 0.4 mm 1 mps 667 mmHg 52%
    12:00 +19°C° 0.4 mm 2 mps 667 mmHg 52%
    13:00 +19°C° 0.4 mm 2 mps 667 mmHg 53%
    14:00 +19°C° 0.5 mm 2 mps 667 mmHg 56%
    15:00 +18°C° 0.5 mm 2 mps 667 mmHg 58%
    16:00 +17°C° 0.5 mm 2 mps 666 mmHg 60%
    17:00 +15°C° 0.3 mm 2 mps 666 mmHg 68%
    18:00 +12°C° 0.3 mm 1 mps 665 mmHg 75%
    19:00 +10°C° 0.3 mm 1 mps 665 mmHg 82%
    20:00 +9°C° 0.1 mm 1 mps 665 mmHg 83%
    21:00 +9°C° 0.1 mm 1 mps 665 mmHg 84%
    22:00 +7°C° 0.1 mm 0 mps 665 mmHg 85%
    23:00 +7°C° 0 mm 0 mps 665 mmHg 85%

    3 May, Wednesday

    Time Temperature Precipitation Wind Pressure Humidity
    00:00 +6°C° 0 mm 0 mps 665 mmHg 85%
    01:00 +6°C° 0 mm 0 mps 664 mmHg 86%
    02:00 +5°C° 0 mm 0 mps 664 mmHg 87%
    03:00 +5°C° 0 mm 0 mps 664 mmHg 87%
    04:00 +5°C° 0 mm 0 mps 664 mmHg 88%
    05:00 +8°C° 0 mm 0 mps 665 mmHg 81%
    06:00 +10°C° 0 mm 0 mps 666 mmHg 74%
    07:00 +13°C° 0 mm 0 mps 667 mmHg 67%
    08:00 +15°C° 0 mm 1 mps 667 mmHg 60%
    09:00 +18°C° 0 mm 1 mps 668 mmHg 53%
    10:00 +20°C° 0 mm 1 mps 668 mmHg 46%
    11:00 +19°C° 0 mm 2 mps 668 mmHg 44%
    12:00 +20°C° 0 mm 2 mps 668 mmHg 42%
    13:00 +20°C° 0 mm 3 mps 668 mmHg 41%
    14:00 +19°C° 0 mm 3 mps 668 mmHg 44%
    15:00 +19°C° 0 mm 3 mps 667 mmHg 47%
    16:00 +18°C° 0 mm 3 mps 667 mmHg 50%
    17:00 +15°C° 0 mm 2 mps 666 mmHg 62%
    18:00 +13°C° 0 mm 2 mps 666 mmHg 73%
    19:00 +10°C° 0 mm 1 mps 665 mmHg 84%
    20:00 +9°C° 0 mm 1 mps 665 mmHg 87%
    21:00 +9°C° 0 mm 1 mps 665 mmHg 89%
    22:00 +7°C° 0 mm 0 mps 665 mmHg 91%
    23:00 +6°C° 0 mm 0 mps 665 mmHg 92%

    4 May, Thursday

    Time Temperature Precipitation Wind Pressure Humidity
    00:00 +6°C° 0 mm 0 mps 665 mmHg 92%
    01:00 +5°C° 0 mm 0 mps 664 mmHg 92%
    02:00 +5°C° 0 mm 0 mps 664 mmHg 92%
    03:00 +5°C° 0 mm 0 mps 664 mmHg 92%
    04:00 +4°C° 0 mm 0 mps 664 mmHg 92%
    05:00 +7°C° 0 mm 0 mps 665 mmHg 83%
    06:00 +10°C° 0 mm 0 mps 666 mmHg 74%
    07:00 +12°C° 0 mm 0 mps 666 mmHg 64%
    08:00 +15°C° 0 mm 1 mps 667 mmHg 56%
    09:00 +16°C° 0 mm 1 mps 667 mmHg 49%
    10:00 +18°C° 0 mm 2 mps 668 mmHg 41%
    11:00 +18°C° 0 mm 2 mps 668 mmHg 40%
    12:00 +19°C° 0 mm 2 mps 668 mmHg 40%
    13:00 +19°C° 0 mm 3 mps 667 mmHg 39%
    14:00 +19°C° 0 mm 3 mps 667 mmHg 42%
    15:00 +18°C° 0 mm 3 mps 667 mmHg 45%
    16:00 +17°C° 0 mm 3 mps 667 mmHg 48%
    17:00 +15°C° 0 mm 2 mps 666 mmHg 59%
    18:00 +12°C° 0 mm 2 mps 665 mmHg 71%
    19:00 +10°C° 0 mm 1 mps 665 mmHg 82%
    20:00 +9°C° 0 mm 1 mps 665 mmHg 84%
    21:00 +8°C° 0 mm 1 mps 665 mmHg 86%
    22:00 +8°C° 0 mm 1 mps 665 mmHg 89%
    23:00 +7°C° 0 mm 1 mps 665 mmHg 89%
    Show more